RH
40 41 41 42 42 40 40 41 41 41 41 42 41 39 36 34 32 30 31 33 32 31 32 32 31 32 33 33 32 30 28 26 24 24 25 25 28 33 36 37 35 30 26 26 27 25 21 20 20 19 20 20 19 19 19 20 21 21 22 23 24 26 28
40 41 39 39 39 38 38 41 44 45 44 44 45 44 42 38 35 34 33 34 33 30 29 29 29 32 32 31 31 31 29 27 25 25 25 25 28 33 36 36 34 30 26 25 24 20 16 15 14 16 21 24 25 23 21 22 23 23 24 26 28 30 32
39 39 37 36 37 36 36 39 43 47 47 47 48 47 44 39 37 38 38 37 38 35 32 30 31 32 31 29 28 27 25 25 25 25 25 26 29 33 35 34 34 31 27 23 22 20 17 15 14 16 22 26 27 25 24 25 26 27 28 29 30 31 31
38 38 37 37 38 37 36 37 42 47 48 49 49 48 45 41 39 41 42 40 40 41 39 36 34 34 32 27 26 26 24 24 25 24 24 26 29 33 35 35 36 35 30 26 25 23 20 18 17 19 22 24 26 27 27 28 29 29 29 30 30 30 31
37 38 38 41 42 40 37 37 41 45 46 46 47 47 45 43 43 45 47 44 42 43 43 39 37 38 34 27 25 27 26 27 26 24 23 25 28 32 34 36 39 38 35 32 30 27 24 23 22 21 21 23 26 28 29 29 29 29 28 28 28 28 29
37 37 37 39 40 38 35 35 35 37 39 41 43 44 44 43 44 46 47 45 44 45 44 43 44 42 34 26 24 29 32 32 32 29 25 24 28 32 35 38 41 40 38 36 35 31 28 26 25 24 24 25 27 29 28 28 28 29 29 28 28 28 29
35 35 36 36 34 33 33 35 34 33 36 40 44 45 44 43 42 41 42 42 42 43 43 45 51 49 39 28 27 33 36 39 41 39 32 27 29 33 36 39 42 42 40 39 37 34 31 29 29 28 28 28 29 29 28 28 30 33 33 32 31 30 31
35 38 38 35 31 28 29 33 35 35 38 42 45 45 43 40 39 38 38 38 39 41 42 44 48 49 43 34 31 35 40 45 50 51 43 33 30 33 35 39 43 43 41 40 39 36 33 31 32 31 30 29 29 29 29 30 33 35 37 37 36 35 36
38 39 38 36 33 29 28 30 32 33 37 41 43 43 42 40 40 39 39 40 41 43 45 46 47 49 47 40 36 38 44 51 57 58 53 41 33 32 34 38 43 45 43 43 40 37 35 34 33 31 29 29 30 30 30 31 33 36 39 39 40 41 41
39 38 37 37 34 32 32 33 34 35 37 40 41 44 45 45 44 42 41 42 43 44 46 47 47 50 51 46 41 42 50 58 62 61 59 49 36 33 37 41 45 46 45 44 41 37 36 34 32 29 27 28 29 30 32 33 35 36 39 39 41 42 41
35 34 35 36 34 34 36 36 36 37 37 39 40 43 45 45 45 44 42 41 41 43 45 45 45 48 49 48 45 46 53 59 62 61 59 51 40 36 41 46 46 46 46 44 40 36 35 33 30 28 28 29 30 31 34 36 36 37 38 38 39 39 39
32 34 35 34 34 36 36 35 35 36 38 40 41 42 42 43 44 42 40 40 40 41 43 43 44 46 47 47 47 51 54 56 61 62 55 46 39 39 48 51 47 46 46 41 38 38 36 33 30 29 30 30 30 32 35 37 38 39 39 38 38 38 39
33 36 35 34 35 37 37 38 39 39 41 41 41 42 41 41 41 40 38 39 40 41 40 40 41 42 47 49 49 53 56 56 61 61 50 41 39 43 53 55 47 45 43 40 41 40 36 33 31 30 30 30 30 33 36 39 40 41 40 38 38 39 39
37 39 38 36 37 38 38 39 42 41 41 40 39 40 39 37 36 34 34 36 40 42 42 40 39 39 45 50 50 54 59 63 67 64 52 44 39 42 50 51 44 42 41 41 42 38 33 32 32 31 31 33 33 35 38 41 42 43 41 40 40 40 41
38 38 38 37 37 38 38 39 41 41 40 40 38 38 38 36 33 30 30 32 37 41 43 44 42 40 44 49 51 54 58 62 64 60 53 48 44 46 50 47 41 39 39 40 39 35 33 33 32 31 32 35 36 38 40 42 43 43 43 43 43 44 44
40 39 37 36 36 37 38 37 36 36 37 38 37 36 37 35 34 32 30 30 33 37 41 43 42 41 42 45 48 51 54 56 57 55 52 52 51 51 49 43 40 38 37 37 35 33 33 32 30 31 33 36 38 40 41 42 45 46 46 48 50 49 48
38 38 38 38 37 38 38 35 34 33 34 35 34 36 37 35 34 34 32 32 33 34 37 41 42 42 43 46 50 53 55 56 56 58 57 53 49 47 45 41 39 38 36 35 33 33 33 32 31 33 36 39 42 43 42 42 44 47 50 52 54 54 53
36 38 39 39 38 38 37 36 36 35 34 34 34 36 37 37 36 35 34 34 34 35 38 41 45 50 52 55 62 67 66 60 57 61 60 51 44 44 44 42 39 38 36 34 33 35 36 35 36 38 41 44 47 48 46 44 45 49 52 54 56 58 59
37 38 38 38 38 39 38 37 36 34 34 35 35 35 36 37 38 36 34 35 36 39 41 43 49 52 52 53 60 67 67 63 62 66 61 50 46 47 46 43 41 39 37 35 36 38 39 40 43 46 49 52 53 52 50 48 48 49 52 54 55 57 59
38 39 39 39 39 37 36 36 34 33 32 33 35 36 36 37 37 37 36 37 40 43 45 47 49 49 50 53 55 57 60 64 69 68 61 54 52 50 45 42 41 38 37 37 39 41 45 47 50 51 53 55 58 60 58 55 52 50 51 52 52 53 55
39 40 41 41 39 37 34 32 31 31 31 31 34 35 36 37 38 39 40 42 45 48 52 53 52 55 61 59 53 55 66 74 75 70 63 60 57 50 44 41 39 38 38 39 41 43 48 52 55 56 56 60 69 74 71 62 54 49 50 50 49 49 52
40 41 42 41 39 37 34 31 30 31 30 30 31 31 32 33 36 39 43 47 51 57 61 61 62 67 71 64 60 67 76 77 74 70 67 65 58 50 45 42 38 38 40 42 44 47 52 55 60 62 63 68 76 78 71 61 52 48 48 46 46 47 50
42 42 42 41 39 38 36 34 33 33 31 30 31 30 29 30 34 42 49 51 53 58 61 62 67 75 79 79 80 82 83 81 75 70 69 66 57 50 46 42 39 40 44 47 51 54 58 60 63 64 64 66 68 66 64 61 52 46 45 44 42 43 46
43 42 42 42 42 41 39 37 36 34 33 31 31 31 30 32 36 44 48 48 49 55 59 63 73 79 80 83 85 83 85 84 74 67 67 64 55 49 47 43 42 44 48 52 55 58 61 62 63 64 64 62 61 63 67 64 51 43 44 44 41 41 43
44 44 44 43 43 43 40 39 37 34 33 31 30 31 33 34 37 42 46 50 54 60 64 71 79 80 74 75 78 79 80 78 69 65 67 63 54 51 49 47 47 48 51 54 57 60 63 64 68 71 71 66 64 65 67 61 49 45 47 45 41 41 42
46 45 46 46 45 44 42 41 39 34 32 31 31 31 33 35 38 41 45 50 54 60 66 72 74 72 69 70 73 75 75 72 67 66 65 60 55 53 53 52 52 52 53 55 58 62 66 67 70 72 72 68 62 58 56 54 49 48 46 43 41 41 41
46 46 47 46 45 43 39 38 35 33 32 32 30 31 33 36 39 41 41 43 44 49 59 66 65 64 67 70 70 73 73 68 63 63 61 58 56 55 56 57 54 53 56 59 63 67 68 69 71 72 71 66 57 50 49 49 48 45 43 41 41 40 38
47 45 45 44 41 39 38 37 36 34 33 32 31 31 33 35 38 41 41 40 39 43 52 61 63 62 63 65 67 72 74 68 62 62 60 57 56 57 59 58 56 58 62 65 68 69 68 69 73 74 69 61 51 48 48 47 45 41 39 39 39 37 36
46 45 44 44 42 41 40 39 38 37 35 34 34 34 34 36 39 41 42 40 40 44 50 56 60 58 57 63 72 79 77 69 62 62 60 58 59 61 62 62 63 67 69 69 69 67 66 68 71 68 60 52 47 47 47 45 42 39 38 38 37 35 35
48 46 45 44 43 43 40 38 38 37 37 37 38 38 39 39 40 41 43 42 42 44 47 52 56 56 58 69 81 84 77 68 63 64 63 63 66 66 65 68 71 74 76 73 69 66 65 65 64 58 50 47 46 45 44 41 40 38 36 36 36 36 39
50 49 46 45 44 42 39 39 39 39 39 39 40 41 42 43 44 46 50 51 50 50 52 55 57 58 63 75 82 80 75 71 70 70 69 67 67 65 65 69 72 74 74 71 67 65 62 58 54 49 45 44 44 42 40 38 36 36 35 37 39 42 46
50 49 47 43 40 37 40 44 43 40 39 40 42 45 46 46 47 51 58 66 71 71 68 65 64 64 69 76 78 76 75 74 74 73 72 69 69 69 70 71 70 68 67 62 58 56 53 51 48 45 42 42 40 38 36 35 36 37 38 40 43 47 51
51 49 44 39 35 34 38 43 43 42 42 42 43 44 44 46 48 52 60 70 78 81 79 74 72 73 73 71 72 75 75 75 74 72 72 72 74 74 72 69 65 60 56 52 48 46 45 44 43 42 40 39 37 36 37 39 40 40 42 44 45 49 53
48 43 38 33 31 31 33 37 40 42 42 41 40 42 44 48 52 55 59 63 68 76 81 77 73 73 71 68 72 76 76 75 73 72 73 75 74 70 66 62 56 51 47 43 43 44 44 43 43 42 41 40 38 38 41 42 42 43 44 45 46 49 53
43 38 35 34 34 34 34 35 37 39 40 39 41 44 46 49 52 54 55 58 61 69 76 77 76 76 75 74 77 78 76 74 73 72 72 71 66 61 57 53 47 43 41 41 44 46 45 44 43 42 42 41 41 41 40 39 40 43 44 45 47 50 54
37 35 35 37 38 38 38 39 39 39 41 43 45 46 47 49 50 49 50 56 62 67 73 78 81 82 80 79 79 78 75 72 69 68 67 64 59 54 50 45 42 44 46 48 49 48 45 43 42 42 42 43 43 42 40 39 41 44 44 46 49 54 58
35 34 34 35 36 36 39 43 43 42 45 48 48 48 49 51 52 54 58 66 71 72 76 82 84 82 79 78 76 74 70 66 63 64 63 61 55 49 46 45 47 51 52 50 48 46 43 43 43 43 43 44 43 44 44 44 45 45 46 48 53 57 59
37 36 33 32 33 34 39 44 45 44 47 51 53 52 53 55 60 65 68 71 72 70 72 76 76 72 71 69 66 64 62 62 63 64 63 60 55 48 44 46 49 51 51 48 46 44 44 46 48 47 47 46 46 47 47 47 46 47 49 52 56 58 58